一网星座-0195星 (ONEWEB-0195 )

导读 | 豆包AI

ONEWEB-0195是英国OneWeb(一网)星座中的低轨宽带卫星,于2021年4月25日发射入轨。它属于一期组网卫星,单星重约147.5kg,设计寿命5年,配备Ku/Ka波段天线,单星通信能力可达约7.5Gbps,可为用户提供最高50Mbps下载速率,助力OneWeb实现全球广域互联网覆盖,目前由欧通信卫星集团运营,和星链形成商业竞争。

Basic Information
目录编号:
48240
目录名称:
ONEWEB-0195
国际标识:
2021-031AG
轨道中心:
EARTH
卫星名称:
一网星座-0195星
卫星全名:
一网星座-0195星 (ONEWEB-0195 )
卫星状态:
在轨 (已飞行1784 天)
发射日期:
2021-04-25 UTC
国别 :
英国 (GB)
星等 :
--
Orbit Information
数据来源 国际轨道数据 AOE轨道数据
星历时间 2026-03-14T05:51:02+0800
12小时前
查看轨道信息
2026-03-10T12:00:00+0800
4天前
查看轨道信息
半长轴 7583.929km 7583.928km
偏心率 0.0002054 0.0002119
轨道倾角 87.898° 87.899°
近地点辐角 81.455° 94.210°
升交点赤经 308.704° 309.452°
平近点角 278.681° 199.671°
近地点 1204.234km 1204.183km
远地点 1207.35km 1207.399km
周期 109.547分钟 109.547分钟
每日圈数 13.145024 13.145028
Detailed Information
平衡模式:
三轴稳定
覆盖范围:
全球
运营商:
一网卫星公司
运营商所在国:
英国
制造商(研发单位):
一网卫星公司
制造商所在国:
英国
使用方式:
暂无
Satellite Introduction
OneWeb卫星网络由648颗重约125公斤的微型卫星组成,运行在1200公里的轨道上。 每颗卫星都能够提供至少每秒8千兆位的吞吐量,以使用其高吞吐量的Ku频段有效载荷为家庭和移动平台提供互联网接入。该卫星仍在工作。
2D Orbit Map
3D Orbit Map
Orbit Altitude Analysis Chart
Orbit Inclination Analysis Chart
Orbit Comprehensive Analysis Chart
View Comprehensive Chart